User: anonymous   Login
Location: Lac de la Montange Noire
(46.1952°N, 74.2701°W)
Time: 15:32:02
(UTC-05:00)
Language:

Iridium 42 - Orbit

View from above orbital plane
View from above orbital plane
View from above satellite
View from above satellite

Ground track
Ground track

The orbit data is extracted from the following two-line orbital elements,

1 25077U 97077A   15060.85263457  .00000283  00000-0  93724-4 0  9995
2 25077 086.3997 012.3902 0002302 089.5362 270.6097 14.34336104902014
Epoch (UTC): 01 March 2015 20:27:47
Eccentricity: 0.0002302
inclination: 86.3997°
perigee height: 775 km
apogee height: 779 km
right ascension of ascending node: 12.3902°
argument of perigee: 89.5362°
revolutions per day: 14.34336104
mean anomaly at epoch: 270.6097°
orbit number at epoch: 90201

The dashed part of the orbit path shows where the satellite is in the earth's shadow,  

DLR